TimeEDT,TemperatureF,Dew PointF,Humidity,Sea Level PressureIn,VisibilityMPH,Wind Direction,Wind SpeedMPH,Gust SpeedMPH,PrecipitationIn,Events,Conditions,WindDirDegrees,DateUTC
12:53 AM,66.9,63.0,87,29.73,10.0,WNW,4.6,-,N/A,,Partly Cloudy,300,2013-06-25 04:53:00
1:53 AM,66.0,63.0,90,29.73,10.0,SW,3.5,-,N/A,,Clear,230,2013-06-25 05:53:00
2:53 AM,64.0,63.0,96,29.71,7.0,South,6.9,-,N/A,,Clear,170,2013-06-25 06:53:00
3:53 AM,64.9,63.0,93,29.71,8.0,South,3.5,-,N/A,,Partly Cloudy,180,2013-06-25 07:53:00
4:53 AM,64.0,63.0,96,29.72,7.0,ENE,3.5,-,N/A,,Clear,60,2013-06-25 08:53:00
5:29 AM,64.4,62.6,94,29.76,7.0,North,4.6,-,N/A,Thunderstorm,Mostly Cloudy,360,2013-06-25 09:29:00
5:53 AM,63.0,61.0,93,29.78,1.2,Variable,4.6,19.6,0.20,Rain-Thunderstorm,Heavy Thunderstorms and Rain,0,2013-06-25 09:53:00
6:01 AM,62.6,62.6,100,29.77,0.5,ESE,10.4,-,0.13,Fog-Rain-Thunderstorm,Thunderstorms and Rain,110,2013-06-25 10:01:00
6:06 AM,62.6,60.8,94,29.78,1.8,ESE,6.9,-,0.13,Rain-Thunderstorm,Light Thunderstorms and Rain,120,2013-06-25 10:06:00
6:08 AM,62.6,60.8,94,29.78,3.0,East,4.6,-,0.13,Rain-Thunderstorm,Light Thunderstorms and Rain,100,2013-06-25 10:08:00
6:21 AM,62.6,60.8,94,29.79,10.0,Calm,Calm,-,0.13,,Overcast,0,2013-06-25 10:21:00
6:30 AM,62.6,60.8,94,29.81,9.0,SW,4.6,-,0.13,Thunderstorm,Overcast,220,2013-06-25 10:30:00
6:45 AM,62.6,60.8,94,29.76,4.0,ENE,4.6,-,0.14,Rain,Light Rain,70,2013-06-25 10:45:00
6:53 AM,62.1,61.0,96,29.75,7.0,ESE,4.6,-,0.14,Rain,Light Rain,110,2013-06-25 10:53:00
7:19 AM,62.6,62.6,100,29.76,1.2,SSE,8.1,-,0.04,Rain,Light Rain,160,2013-06-25 11:19:00
7:23 AM,62.6,62.6,100,29.75,1.0,SSE,8.1,-,0.04,,Mostly Cloudy,160,2013-06-25 11:23:00
7:27 AM,62.6,62.6,100,29.75,1.5,SSE,6.9,-,0.04,,Overcast,150,2013-06-25 11:27:00
7:29 AM,62.6,62.6,100,29.75,3.0,SSE,6.9,-,0.04,,Mostly Cloudy,160,2013-06-25 11:29:00
7:37 AM,62.6,62.6,100,29.76,6.0,South,3.5,-,0.04,,Mostly Cloudy,180,2013-06-25 11:37:00
7:53 AM,63.0,62.1,97,29.75,10.0,South,6.9,-,0.04,,Overcast,190,2013-06-25 11:53:00
8:53 AM,66.9,64.0,90,29.74,10.0,South,4.6,-,N/A,,Mostly Cloudy,180,2013-06-25 12:53:00
9:53 AM,68.0,63.0,84,29.74,10.0,SSW,5.8,-,N/A,,Overcast,200,2013-06-25 13:53:00
10:53 AM,70.0,64.9,84,29.75,10.0,SSW,3.5,-,N/A,,Overcast,210,2013-06-25 14:53:00
11:02 AM,71.6,64.4,78,29.76,10.0,Variable,3.5,-,N/A,,Overcast,0,2013-06-25 15:02:00
11:31 AM,73.4,66.2,78,29.76,10.0,West,6.9,-,N/A,,Mostly Cloudy,280,2013-06-25 15:31:00
11:41 AM,73.4,66.2,78,29.76,10.0,WSW,6.9,-,N/A,,Scattered Clouds,250,2013-06-25 15:41:00
11:53 AM,73.0,66.0,79,29.74,10.0,SW,3.5,-,N/A,,Partly Cloudy,220,2013-06-25 15:53:00
12:53 PM,75.9,66.0,71,29.72,10.0,SW,5.8,-,N/A,,Partly Cloudy,220,2013-06-25 16:53:00
1:53 PM,75.9,66.0,71,29.70,10.0,SSW,8.1,-,0.01,,Partly Cloudy,200,2013-06-25 17:53:00
2:53 PM,79.0,66.9,66,29.67,10.0,South,8.1,-,N/A,,Scattered Clouds,170,2013-06-25 18:53:00
3:53 PM,80.1,66.9,64,29.63,10.0,Variable,5.8,-,N/A,,Partly Cloudy,0,2013-06-25 19:53:00
4:15 PM,80.6,64.4,58,29.64,10.0,SSW,9.2,17.3,N/A,Thunderstorm,Partly Cloudy,200,2013-06-25 20:15:00
4:30 PM,82.4,64.4,54,29.63,10.0,SSW,10.4,-,N/A,,Partly Cloudy,200,2013-06-25 20:30:00
4:38 PM,82.4,64.4,54,29.63,10.0,SSW,10.4,-,N/A,Thunderstorm,Clear,210,2013-06-25 20:38:00
4:53 PM,82.0,64.9,56,29.60,10.0,SW,11.5,-,N/A,Thunderstorm,Partly Cloudy,220,2013-06-25 20:53:00
5:13 PM,80.6,64.4,58,29.62,10.0,SW,8.1,16.1,N/A,,Partly Cloudy,230,2013-06-25 21:13:00
5:35 PM,82.4,64.4,54,29.63,10.0,WSW,8.1,-,N/A,Thunderstorm,Scattered Clouds,250,2013-06-25 21:35:00
5:53 PM,82.0,61.0,49,29.61,10.0,West,11.5,23.0,N/A,,Partly Cloudy,260,2013-06-25 21:53:00
6:53 PM,78.1,62.1,58,29.63,10.0,WNW,9.2,-,N/A,,Partly Cloudy,290,2013-06-25 22:53:00
7:15 PM,66.2,60.8,83,29.69,10.0,North,25.3,36.8,N/A,,Overcast,350,2013-06-25 23:15:00
7:50 PM,64.4,60.8,88,29.70,10.0,North,16.1,23.0,N/A,,Mostly Cloudy,360,2013-06-25 23:50:00
7:53 PM,64.9,60.1,84,29.69,10.0,North,12.7,23.0,N/A,,Mostly Cloudy,360,2013-06-25 23:53:00
8:06 PM,64.4,59.0,83,29.70,10.0,NNE,10.4,19.6,N/A,,Scattered Clouds,30,2013-06-26 00:06:00
8:53 PM,63.0,57.9,84,29.71,10.0,NNW,5.8,-,N/A,,Scattered Clouds,340,2013-06-26 00:53:00
9:53 PM,61.0,57.0,87,29.70,10.0,NW,5.8,-,N/A,,Clear,310,2013-06-26 01:53:00
10:43 PM,60.8,57.2,88,29.72,10.0,East,4.6,-,N/A,,Scattered Clouds,90,2013-06-26 02:43:00
10:53 PM,60.1,57.9,93,29.71,10.0,East,4.6,-,N/A,,Mostly Cloudy,80,2013-06-26 02:53:00
11:01 PM,60.8,57.2,88,29.73,10.0,ENE,4.6,-,N/A,,Overcast,60,2013-06-26 03:01:00
11:19 PM,60.8,57.2,88,29.74,10.0,North,3.5,-,N/A,,Overcast,360,2013-06-26 03:19:00
11:53 PM,59.0,57.0,93,29.73,10.0,NNE,3.5,-,N/A,,Overcast,30,2013-06-26 03:53:00